GSAT0217 (GALILEO 21)

Last updated on Tue Nov 19 2024 00:02:30 GMT+0000 (Coordinated Universal Time)

1 43057U 17079C 24322.91723933 -.00000006 00000+0 00000+0 0 9998 2 43057 55.2748 237.3658 0003083 320.5807 39.4405 1.70473709 43162
UTC large
Height (km)
Speed (km/s)
/
Latitude / Longitude
Inclination (degrees)
Orbital Period (minutes)
Azimuth
Elevation
Range (km)
Doppler Factor

Next 0 passes for location: London (51.5072 / 0.1276)

Sorry there are no passes over London.